Location: Beetenbrück
(52.8113°N, 9.5946°E)
Time: 21:31:53
(UTC+00:00)

Geosat - Pass Details

Date: 14 April 2026
Orbit: 758 x 760 km, 108.0° (Epoch: 12 May)

Event Time Altitude Azimuth Distance (km) Brightness Sun altitude
Rises 19:28:36 0° 34° (NNE) 3,232 7.2 -10.4°
Reaches altitude 10° 19:30:57 10° 39° (NE) 2,302 6.4 -10.7°
Maximum altitude 19:35:51 53° 116° (ESE) 931 4.1 -11.3°
Drops below altitude 10° 19:40:44 10° 194° (SSW) 2,287 6.3 -11.9°
Sets 19:43:03 0° 199° (SSW) 3,208 7.1 -12.2°
